Meteo Giornale » Osservazioni meteo Indonesia » Jakarta-Soekarno-Hatta
ore: 10:00 - Osservazioni Meteo Jakarta-Soekarno-Hatta
Lat. 6° 7' S Lon. 106° 39' E Alt. 8 metri s.l.m.
31 °C
Nuvoloso
Temp. 24 Ore
27 °C
34 °C
Est
14.8 Km/h
Dew point 23 °C
Umidità 62 %
Visibilità 8 Km
Il sole sorge alle ore 05:53
Il sole tramonta alle ore 17:53
| Data e Ora | Cielo e Fenomeni | T °C | DP °C | Um. % | Pres. hPa | Vis. km | Vento km/h | |
|---|---|---|---|---|---|---|---|---|
| Oggi h: 10:00 | Nuvoloso | 31 | 23 | 62 | 1014 | 8 | E 14.8 | |
| Oggi h: 09:30 | Nuvoloso | 31 | 23 | 62 | 1014 | 8 | E 11.1 | |
| Oggi h: 09:00 | Poco Nuvoloso | 31 | 23 | 62 | 1015 | 8 | E/NE 14.8 | |
| Oggi h: 08:30 | Nuvoloso | 30 | 23 | 66 | 1014 | 8 | E 13 | |
| Oggi h: 08:00 | Nuvoloso | 29 | 24 | 74 | 1014 | 7 | E 9.3 | |
| Oggi h: 07:30 | Nuvoloso | 28 | 24 | 78 | 1014 | 7 | E 11.1 | |
| Oggi h: 07:00 | Foschia | 28 | 24 | 78 | 1014 | 5 | E 7.4 | |
| Oggi h: 06:30 | Foschia | 27 | 23 | 78 | 1013 | 5 | E 9.3 | |
| Oggi h: 06:00 | Foschia | 27 | 24 | 83 | 1013 | 5 | E/SE 9.3 | |
| Oggi h: 05:30 | Molto Nuvoloso | 27 | 24 | 83 | 1013 | 8 | E/SE 7.4 | |
| Oggi h: 05:00 | Nuvoloso | 27 | 24 | 83 | 1013 | 9 | E/SE 9.3 | |
| Oggi h: 04:30 | Nuvoloso | 27 | 24 | 83 | 1013 | 9 | E/SE 7.4 | |
| Oggi h: 04:00 | Nuvoloso | 27 | 24 | 83 | 1013 | 9 | N 3.7 | |
| Oggi h: 03:30 | Nuvoloso | 27 | 24 | 83 | 1013 | 9 | N 5.5 | |
| Oggi h: 03:00 | Nuvoloso | 27 | 24 | 83 | 1013 | 9 | E/SE 7.4 | |
| Oggi h: 02:30 | Nuvoloso | 27 | 24 | 83 | 1013 | 9 | N 5.5 | |
| Oggi h: 02:00 | Nuvoloso | 27 | 24 | 83 | 1013 | 9 | N 3.7 | |
| Oggi h: 01:30 | Molto Nuvoloso | 27 | 24 | 83 | 1013 | 9 | N 5.5 | |
| Oggi h: 01:00 | Nuvoloso | 27 | 24 | 83 | 1013 | 9 | NE 7.4 | |
| Oggi h: 00:30 | Molto Nuvoloso | 27 | 24 | 83 | 1013 | 9 | E/NE 9.3 | |
| Oggi h: 00:00 | Molto Nuvoloso | 28 | 24 | 78 | 1014 | 9 | E/NE 9.3 | |
| Ieri h: 23:30 | Molto Nuvoloso | 28 | 24 | 78 | 1014 | 9 | E/NE 13 | |
| Ieri h: 23:00 | Molto Nuvoloso | 28 | 24 | 78 | 1014 | 9 | NE 13 | |
| Ieri h: 22:30 | Molto Nuvoloso | 28 | 24 | 78 | 1014 | 9 | E 13 | |
| Ieri h: 22:00 | Molto Nuvoloso | 28 | 24 | 78 | 1014 | 9 | E/NE 14.8 | |
| Ieri h: 21:30 | Nuvoloso | 28 | 24 | 78 | 1014 | 9 | NE 14.8 | |
| Ieri h: 21:00 | Nuvoloso | 28 | 24 | 78 | 1013 | 9 | E/NE 16.7 | |
| Ieri h: 20:30 | Nuvoloso | 28 | 24 | 78 | 1013 | 9 | E/NE 14.8 | |
| Ieri h: 20:00 | Nuvoloso | 28 | 24 | 78 | 1013 | 9 | E/NE 16.7 | |
| Ieri h: 19:30 | Nuvoloso | 28 | 24 | 78 | 1012 | 8 | NE 18.5 | |
| Ieri h: 19:00 | Poco Nuvoloso | 28 | 24 | 78 | 1012 | 8 | E/NE 14.8 | |
| Ieri h: 18:30 | Nuvoloso | 29 | 24 | 74 | 1012 | 8 | NE 16.7 | |
| Ieri h: 18:00 | Poco Nuvoloso | 28 | 24 | 78 | 1012 | 8 | NE 18.5 | |
| Ieri h: 17:30 | Sereno | 29 | 24 | 74 | 1011 | 8 | NE 20.3 | |
| Ieri h: 17:00 | Sereno | 29 | 24 | 74 | 1011 | 8 | NE 22.2 | |
| Ieri h: 16:30 | Sereno | 30 | 24 | 70 | 1011 | 8 | NE 25.9 | |
| Ieri h: 16:00 | Sereno | 31 | 24 | 66 | 1011 | 8 | NE 25.9 | |
| Ieri h: 15:30 | Poco Nuvoloso | 31 | 24 | 66 | 1010 | 8 | NE 27.8 | |
| Ieri h: 15:00 | Poco Nuvoloso | 32 | 23 | 59 | 1010 | 8 | NE 27.8 | |
| Ieri h: 14:30 | Poco Nuvoloso | 32 | 24 | 62 | 1010 | 8 | NE 27.8 | |
| Ieri h: 14:00 | Poco Nuvoloso | 33 | 23 | 55 | 1011 | 8 | NE 25.9 | |
| Ieri h: 13:30 | Poco Nuvoloso | 33 | 23 | 55 | 1011 | 8 | NE 25.9 | |
| Ieri h: 13:00 | Poco Nuvoloso | 33 | 23 | 55 | 1011 | 7 | NE 25.9 | |
| Ieri h: 12:30 | Poco Nuvoloso | 33 | 23 | 55 | 1012 | 7 | N/NE 27.8 | |
| Ieri h: 12:00 | Poco Nuvoloso | 34 | 23 | 52 | 1012 | 7 | N/NE 27.8 | |
| Ieri h: 11:30 | Poco Nuvoloso | 33 | 23 | 55 | 1012 | 7 | E/NE 20.3 | |
| Ieri h: 11:00 | Poco Nuvoloso | 33 | 23 | 55 | 1013 | 6 | NE 18.5 | |



